Location: Central Falls
(41.8900°N, 71.3929°W)
Time: 03:50:12
(UTC+00:00)

Vanguard 2 - Pass Details

Date: 05 December 2023
Orbit: 554 x 2918 km, 32.9° (Epoch: 01 March)

Event Time Altitude Azimuth Distance (km) Brightness Sun altitude
Rises 21:34:49 0° 174° (S) 6,405 12.5 -4.2°
Reaches altitude 10° 21:45:51 10° 140° (SE) 5,720 11.8 -6.0°
Maximum altitude 21:48:13 10° 132° (SE) 5,705 11.7 -6.4°
Drops below altitude 10° 21:50:36 10° 124° (SE) 5,741 11.7 -6.8°
Enters shadow 22:00:26 - 95° (E) 6,398 11.7 -8.5°
Sets 22:01:37 0° 92° (E) 6,524 - -8.7°
